Date String (YYYY-MM-DD hh:mm:ss) UTC,Instrument flags,absolute air pressure of the measurement (hPa),sample flow rate (lpm),inlet stack bypass flow (lpm),air temperature of the measurement (°C),ambient temperature measured by the external sensor (°C),aerosol sample conditioner tube jacket temperature (°C),OPC LED temperature (°C),internal box temperature (°C),relative humidity of the measurement (%),span deviation,mass concentration of particles derived from Lorenz-Mie calculation of OPC scattering (μg/m³),mass concentration of particles derived from Lorenz-Mie calculation of OPC scattering (μg/m³),mass concentration of particles derived from Lorenz-Mie calculation of OPC scattering (μg/m³)
DateTimeUTC,F1_M11,P_M11,Q1_M11,Q2_M11,T1_M11,T2_M11,T3_M11,T4_M11,T5_M11,U1_M11,ZSPAN_M11,X2_M11,X0_M11,X1_M11
2023-08-08 18:00:00,SystemResetWarning,0831.1,4.99,000.00,029.2,027.7,000.0,037.6,030.9,34.1,0001.2,0006.67,0015.41,0005.63
2023-08-08 18:01:00,SystemResetWarning,0831.1,4.99,000.00,029.3,027.9,000.0,037.7,031.0,34.3,0000.6,0006.60,0015.61,0005.60
2023-08-08 18:02:00,SystemResetWarning,0831.0,5.00,000.00,029.3,028.0,000.0,037.7,031.0,33.9,0000.3,0006.60,0015.94,0005.59
2023-08-08 18:03:00,SystemResetWarning,0830.9,5.00,000.00,029.3,027.2,000.0,037.6,030.9,34.2,0000.4,0006.58,0015.52,0005.59
2023-08-08 18:04:00,SystemResetWarning,0830.9,5.00,000.00,029.3,025.7,000.0,037.5,030.7,34.1,0000.5,0006.58,0015.47,0005.58
2023-08-08 18:05:00,SystemResetWarning,0830.8,5.00,000.00,029.2,025.1,000.0,037.4,030.5,34.7,0000.1,0006.55,0015.07,0005.58
2023-08-08 18:06:00,SystemResetWarning,0830.8,5.01,000.00,029.1,025.3,000.0,037.4,030.3,34.8,-000.1,0006.53,0015.15,0005.58
2023-08-08 18:07:00,SystemResetWarning,0830.8,5.01,000.00,029.1,025.6,000.0,037.5,030.4,34.6,-000.4,0006.55,0014.56,0005.58
2023-08-08 18:08:00,SystemResetWarning,0830.8,4.99,000.00,029.1,026.1,000.0,037.5,030.5,34.0,-000.5,0006.58,0015.14,0005.58
2023-08-08 18:09:00,SystemResetWarning,0830.8,5.00,000.00,029.2,026.5,000.0,037.5,030.6,33.8,-000.3,0006.61,0015.25,0005.57
2023-08-08 18:10:00,SystemResetWarning,0830.8,5.00,000.00,029.2,026.9,000.0,037.6,030.7,33.9,0000.4,0006.58,0015.25,0005.54
2023-08-08 18:11:00,SystemResetWarning,0830.8,5.00,000.00,029.3,027.2,000.0,037.6,030.8,34.0,0000.6,0006.54,0014.91,0005.54
2023-08-08 18:12:00,SystemResetWarning,0830.8,5.00,000.00,029.3,027.4,000.0,037.6,030.9,34.1,0000.7,0006.55,0014.42,0005.53
2023-08-08 18:13:00,SystemResetWarning,0830.9,5.01,000.00,029.3,027.6,000.0,037.7,030.9,34.1,0001.7,0006.57,0014.69,0005.53
2023-08-08 18:14:00,SystemResetWarning,0830.9,4.99,000.00,029.4,027.8,000.0,037.7,031.0,33.7,0000.1,0006.54,0014.26,0005.52
2023-08-08 18:15:00,SystemResetWarning,0830.9,4.98,000.00,029.4,027.5,000.0,037.7,031.0,33.6,0000.0,0006.53,0014.69,0005.51
2023-08-08 18:16:00,SystemResetWarning,0830.9,5.01,000.00,029.4,025.9,000.0,037.6,030.7,33.8,0000.0,0006.54,0014.76,0005.51
2023-08-08 18:17:00,SystemResetWarning,0830.9,5.00,000.00,029.3,025.0,000.0,037.5,030.5,34.1,0000.8,0006.51,0014.20,0005.50
2023-08-08 18:18:00,SystemResetWarning,0830.8,4.99,000.00,029.3,025.1,000.0,037.4,030.3,35.4,0002.3,0006.47,0014.07,0005.49
2023-08-08 18:19:00,SystemResetWarning,0830.7,5.02,000.00,029.3,025.4,000.0,037.5,030.4,35.5,0000.5,0006.41,0013.66,0005.49
2023-08-08 18:20:00,SystemResetWarning,0830.8,4.99,000.00,029.5,025.9,000.0,037.5,030.6,33.9,0000.0,0006.45,0013.87,0005.48
2023-08-08 18:21:00,SystemResetWarning,0830.8,4.99,000.00,029.7,026.3,000.0,037.6,030.7,34.3,0000.4,0006.42,0013.65,0005.48
2023-08-08 18:22:00,SystemResetWarning,0830.8,5.00,000.00,029.8,026.7,000.0,037.6,030.8,34.2,0000.1,0006.49,0014.53,0005.48
2023-08-08 18:23:00,SystemResetWarning,0830.8,5.01,000.00,029.9,027.0,000.0,037.7,030.9,33.4,0000.0,0006.46,0014.67,0005.48
2023-08-08 18:24:00,SystemResetWarning,0830.9,5.01,000.00,030.0,027.3,000.0,037.8,031.0,33.4,-000.2,0006.46,0014.97,0005.48
2023-08-08 18:25:00,SystemResetWarning,0830.9,4.99,000.00,030.0,027.6,000.0,037.9,031.0,33.2,-000.4,0006.42,0014.64,0005.46
2023-08-08 18:26:00,SystemResetWarning,0830.9,5.00,000.00,030.1,027.8,000.0,037.9,031.1,32.8,-000.4,0006.42,0015.16,0005.46
2023-08-08 18:27:00,SystemResetWarning,0831.0,5.01,000.00,030.1,027.7,000.0,038.0,031.1,32.9,-000.1,0006.40,0014.74,0005.44
2023-08-08 18:28:00,SystemResetWarning,0830.9,4.99,000.00,030.1,026.2,000.0,037.9,030.9,31.6,-000.1,0006.41,0014.76,0005.43
2023-08-08 18:29:00,SystemResetWarning,0830.9,5.00,000.00,030.1,025.1,000.0,037.8,030.7,31.9,-000.5,0006.43,0014.41,0005.44
2023-08-08 18:30:00,SystemResetWarning,0831.0,5.00,000.00,030.0,025.0,000.0,037.8,030.5,31.9,-000.4,0006.44,0014.39,0005.43
2023-08-08 18:31:00,SystemResetWarning,0830.9,5.01,000.00,029.9,025.3,000.0,037.9,030.4,32.7,-000.1,0006.46,0014.29,0005.42
2023-08-08 18:32:00,SystemResetWarning,0830.9,5.00,000.00,029.8,025.7,000.0,037.9,030.5,33.4,0000.1,0006.51,0014.93,0005.43
2023-08-08 18:33:00,SystemResetWarning,0830.9,5.00,000.00,029.8,026.2,000.0,037.9,030.6,34.2,0000.9,0006.46,0014.73,0005.42
2023-08-08 18:34:00,SystemResetWarning,0830.9,5.00,000.00,029.8,026.6,000.0,038.0,030.8,33.3,0000.2,0006.52,0015.45,0005.43
2023-08-08 18:35:00,SystemResetWarning,0830.9,5.00,000.00,029.8,026.9,000.0,038.0,030.8,33.0,0000.9,0006.54,0015.03,0005.44
2023-08-08 18:36:00,SystemResetWarning,0830.8,5.00,000.00,029.8,027.2,000.0,038.0,030.9,32.6,0001.2,0006.55,0014.83,0005.43
2023-08-08 18:37:00,SystemResetWarning,0830.8,5.00,000.00,029.8,027.5,000.0,038.1,031.0,32.6,0001.2,0006.59,0014.36,0005.43
2023-08-08 18:38:00,SystemResetWarning,0830.8,4.99,000.00,029.8,027.7,000.0,038.1,031.1,32.7,0001.1,0006.61,0014.29,0005.42
2023-08-08 18:39:00,SystemResetWarning,0830.7,5.00,000.00,029.9,027.9,000.0,038.1,031.1,32.9,0001.1,0006.61,0014.59,0005.42
2023-08-08 18:40:00,SystemResetWarning,0830.7,4.99,000.00,029.9,027.6,000.0,038.1,031.1,32.7,0001.3,0006.68,0014.67,0005.42
2023-08-08 18:41:00,SystemResetWarning,0830.7,5.00,000.00,029.8,025.9,000.0,037.9,030.8,33.6,0000.7,0006.70,0014.65,0005.44
2023-08-08 18:42:00,SystemResetWarning,0830.6,5.00,000.00,029.8,025.0,000.0,037.8,030.6,33.7,0000.0,0006.63,0014.55,0005.43
2023-08-08 18:43:00,SystemResetWarning,0830.6,5.02,000.00,029.7,024.9,000.0,037.8,030.4,33.6,0000.0,0006.57,0014.10,0005.42
2023-08-08 18:44:00,SystemResetWarning,0830.6,5.00,000.00,029.5,025.3,000.0,037.8,030.4,33.8,0000.0,0006.56,0013.79,0005.41
2023-08-08 18:45:00,SystemResetWarning,0830.6,4.99,000.00,029.5,025.7,000.0,037.9,030.5,34.6,0000.0,0006.50,0013.72,0005.40
2023-08-08 18:46:00,SystemResetWarning,0830.6,5.00,000.00,029.5,026.2,000.0,037.9,030.6,34.6,0000.0,0006.49,0014.33,0005.40
2023-08-08 18:47:00,SystemResetWarning,0830.6,5.01,000.00,029.5,026.6,000.0,037.9,030.7,34.4,0000.0,0006.46,0014.83,0005.40
2023-08-08 18:48:00,SystemResetWarning,0830.7,5.00,000.00,029.5,026.9,000.0,037.9,030.8,34.0,0000.0,0006.42,0014.67,0005.41
2023-08-08 18:49:00,SystemResetWarning,0830.7,4.99,000.00,029.5,027.2,000.0,037.9,030.9,34.1,0000.4,0006.38,0014.78,0005.41
2023-08-08 18:50:00,SystemResetWarning,0830.7,5.00,000.00,029.5,027.5,000.0,037.9,030.9,34.5,0000.4,0006.35,0014.46,0005.41
2023-08-08 18:51:00,SystemResetWarning,0830.7,5.01,000.00,029.6,027.7,000.0,038.0,031.0,34.7,0000.6,0006.29,0015.96,0005.39
2023-08-08 18:52:00,SystemResetWarning,0830.7,5.01,000.00,029.6,027.9,000.0,038.0,031.1,34.5,0000.2,0006.23,0016.65,0005.37
2023-08-08 18:53:00,SystemResetWarning,0830.7,4.97,000.00,029.7,027.9,000.0,038.0,031.1,35.1,0000.3,0006.25,0016.42,0005.37
2023-08-08 18:54:00,SystemResetWarning,0830.7,5.02,000.00,029.8,026.5,000.0,037.9,031.0,35.2,0000.1,0006.26,0017.12,0005.38
2023-08-08 18:55:00,SystemResetWarning,0830.6,5.01,000.00,030.0,025.1,000.0,037.7,030.9,34.6,-000.0,0006.27,0017.89,0005.39
2023-08-08 18:56:00,SystemResetWarning,0830.6,4.98,000.00,030.2,024.9,000.0,037.7,030.7,34.3,-001.0,0006.28,0017.05,0005.40
2023-08-08 18:57:00,SystemResetWarning,0830.6,5.02,000.00,030.1,025.2,000.0,037.8,030.6,33.3,-000.7,0006.29,0016.07,0005.41
2023-08-08 18:58:00,SystemResetWarning,0830.7,4.99,000.00,030.1,025.6,000.0,037.8,030.6,34.0,-000.1,0006.27,0015.25,0005.40
2023-08-08 18:59:00,SystemResetWarning,0830.7,5.00,000.00,030.1,026.1,000.0,037.9,030.7,34.2,-000.1,0006.29,0015.52,0005.41
